Tracking 31027 objects as of 19-Jul-2025
HD Live streaming from Space Station
objects crossing your sky now

SL-12 R/B(2)

Track SL-12 R/B(2) now!


NORAD ID: 23401
Int'l Code: 1994-076F
Perigee: 19,072.4 km
Apogee: 19,129.3 km
Inclination: 64.7 °
Period: 674.3 minutes
Semi major axis: 25471 km
RCS: 2.156 m2 (large)
Launch date: November 20, 1994
Source: Commonwealth of Independent States (former USSR) (CIS)
Launch site: TYURATAM MISSILE AND SPACE COMPLEX (TTMTR)

Note: This is a ROCKET BODY
Your satellite tracking list
FLOCK 3S 1
Track 1 satellite(s)




NASA's NSSDC Master Catalog

Two Line Element Set (TLE):
1 23401U 94076F   25198.44783279 -.00000023  00000-0  00000-0 0  9991
2 23401  64.6712  78.5916 0011181 292.4298 247.3659  2.13556083239061
Source of the keplerian elements: AFSPC